Powrót do katalogu

TRANSIT 18 DEB

AktywnyPO
NORAD 35416·DEBRIS·🇺🇸 United States

Wystrzelony Mar 2, 1968 z Vandenberg Space Force Base

Loading…

Następne Przeloty (najbliższe 24 godziny)

TLE

ŚwieżeSource: Space-Track

Epoka: Sep 14, 2026, 13:15 UTC

1 35416U 68012F   26257.55219773  .00000583  00000-0  77018-3 0  9999
2 35416  90.0186 273.5980 0063468 347.7661 180.2026 13.59153867866670

Śledź TRANSIT 18 DEB w czasie rzeczywistym z AllMySat

Download on the App Store